Home > Weather > Fort Simpson > Past weeks

Flag for Canada Past Weather in Fort Simpson, Northwest Territories, Canada — Yesterday and Last 2 Weeks

Now
54 °F

Overcast.


Feels Like: 54 °F
Forecast: 50 / 60 °F
Wind: 2 mph from North

Location: Fort Simpson

Current Time: Jul 23, 2016 at 7:16:56 AM

Latest Report: Jul 23, 2016 at 6:00 AM


Visibility: 15 mi

Pressure: 29.71 "Hg

Humidity: 94%

Dew Point: 52 °F

Location of Fort SimpsonLocation

Past Weather in Fort Simpson — Graph

°F

Fort Simpson Temperature Yesterday

Maximum temperature yesterday: 70 °F (at 7:00 PM)
Minimum temperature yesterday: 50 °F (at 6:00 AM)
Average temperature yesterday: 59 °F

High & Low Weather Summary for the Past Weeks

 TemperatureHumidityPressure
High88 °F (Jul 17, 4:00 PM)100% (Jul 20, 3:00 AM)30.19 "Hg (Jul 20, 3:00 AM)
Low43 °F (Jul 21, 6:00 AM)22% (Jul 14, 5:00 PM)29.64 "Hg (Jul 19, 2:00 AM)
Average66 °F62%29.90 "Hg
* Reported Jul 8 6:00 AM — Jul 23 6:00 AM, Fort Simpson, Weather by CustomWeather, © 2016

Note: Actual official high and low records may vary slightly from our data, if they occured in-between our weather recording intervals... More about our weather records

Advertising

Fort Simpson Weather History for the Previous 24 Hours

Scroll right to see more
 ConditionsComfort  
Time TempWeatherWind HumidityBarometerVisibility
6:00 AM
Sat, Jul 23
54 °FOvercast.2 mph94%29.71 "Hg15 mi
5:00 AM54 °FLight rain. Overcast.3 mph88%29.70 "Hg15 mi
4:00 AM54 °FLight rain. Overcast.6 mph88%29.68 "Hg15 mi
3:00 AM55 °FLight rain. Overcast.5 mph88%29.68 "Hg15 mi
2:00 AM55 °FRain. Overcast.6 mph88%29.69 "Hg15 mi
1:00 AM59 °FMostly cloudy.2 mph72%29.67 "Hg15 mi
12:00 AM63 °FPartly sunny.2 mph56%29.66 "Hg15 mi
11:00 PM
Fri, Jul 22
63 °FPartly sunny.2 mph56%29.66 "Hg15 mi
9:00 PM66 °FBroken clouds.No wind46%29.66 "Hg15 mi
8:00 PM68 °FPartly sunny.2 mph38%29.66 "Hg15 mi
7:00 PM70 °FPartly sunny.3 mph35%29.66 "Hg15 mi
6:00 PM68 °FBroken clouds.3 mph35%29.67 "Hg15 mi
5:00 PM68 °FPartly sunny.2 mph35%29.67 "Hg15 mi
4:00 PM66 °FPartly sunny.No wind37%29.69 "Hg15 mi
3:00 PM66 °FPartly sunny.6 mph40%29.69 "Hg15 mi
2:00 PM64 °FPartly sunny.6 mph46%29.70 "Hg15 mi
1:00 PM63 °FPartly sunny.9 mph52%29.71 "Hg15 mi
12:00 PM59 °FPartly sunny.9 mph55%29.72 "Hg15 mi
11:00 AM59 °FPartly sunny.9 mph59%29.71 "Hg15 mi
10:00 AM57 °FPartly sunny.8 mph59%29.70 "Hg15 mi
9:00 AM54 °FPartly sunny.2 mph63%29.70 "Hg15 mi
8:00 AM52 °FPartly sunny.5 mph72%29.70 "Hg15 mi
7:00 AM50 °FBroken clouds.2 mph71%29.69 "Hg15 mi
Weather by CustomWeather, © 2016

See weather overviewHow to use our weather pages